Theta_e
313 314 314 314 314 313 313 313 313 314 314 314 313 314 315 314 311 311 311 309 308 313 314 314 314 314 314 314 315 315 313 312 313 314 314 315 316 316 316 316 316 316 316 316 316 315 315 315 315 315 315 315 315 315 315 315 315 315 316 316 315 316 316 316 315 315 315 315 315 315 315 315 316 317 319 321 320 318 317 316 317 316 316 317 319 322
312 314 315 314 313 312 311 310 310 311 312 313 312 313 314 314 312 311 311 309 307 312 314 312 312 314 315 315 316 316 313 313 314 314 314 314 314 315 315 315 316 316 315 316 315 315 316 315 316 315 315 315 315 315 315 315 315 315 316 315 315 315 315 315 315 315 315 315 315 315 315 315 315 317 318 319 319 317 316 317 317 318 318 320 322 325
313 315 314 311 309 309 308 308 310 311 312 313 313 313 312 313 312 310 310 309 308 312 314 313 313 315 316 316 316 314 312 312 311 311 311 311 312 312 313 314 314 315 315 315 314 315 315 315 316 316 316 315 315 316 315 316 316 316 316 315 316 315 315 316 315 315 315 315 315 315 315 315 316 317 317 317 318 318 319 319 319 319 320 322 323 323
313 313 310 307 308 310 309 310 312 312 312 314 314 312 313 314 313 312 312 309 307 309 312 312 313 315 315 314 312 310 308 308 308 308 309 309 310 311 311 312 313 313 314 314 313 313 314 314 315 316 316 316 316 316 316 316 316 316 316 315 315 315 315 315 315 315 315 315 315 315 315 315 316 316 316 316 318 318 319 320 321 320 322 326 327 327
313 309 305 305 309 311 311 311 313 313 312 314 316 314 314 314 314 313 312 309 308 307 308 310 313 314 314 313 312 309 307 308 309 310 311 311 312 312 312 312 312 313 313 312 312 312 313 313 314 314 315 315 315 316 316 315 315 315 314 315 315 315 315 315 315 315 315 315 315 315 315 315 315 316 316 316 317 318 318 319 321 321 323 326 327 327
312 305 303 307 309 311 312 312 315 315 313 314 315 315 314 313 314 313 312 311 312 312 309 309 311 313 314 313 312 310 309 310 311 312 312 312 313 313 313 312 312 313 313 312 312 312 313 313 313 314 314 314 314 314 314 314 314 314 313 314 314 315 315 315 315 315 315 315 315 315 315 315 316 316 316 317 317 318 318 319 320 321 322 324 324 324
308 304 305 309 311 313 313 312 315 316 313 313 313 312 311 314 316 313 313 314 314 313 309 307 311 312 313 314 312 310 310 312 312 313 313 312 312 313 313 313 313 314 314 314 314 314 314 314 314 314 314 314 314 314 314 314 314 313 313 313 314 314 315 315 315 315 315 315 315 315 315 316 316 316 317 317 318 318 319 319 319 320 321 322 322 323
306 305 307 310 312 314 313 313 314 314 313 314 313 311 311 315 317 316 315 315 314 313 311 310 313 312 312 314 311 309 311 313 313 313 313 312 312 312 313 314 315 316 316 316 316 316 315 315 315 314 314 314 314 314 314 314 313 313 313 313 314 314 315 315 315 315 315 315 315 315 315 316 316 316 316 317 317 317 318 318 318 319 320 320 321 322
308 310 310 311 313 313 313 314 313 313 314 314 309 310 312 314 317 317 316 314 312 312 313 313 312 311 311 314 311 309 311 313 313 312 312 312 312 312 313 314 315 316 316 316 316 316 316 316 316 315 315 315 315 315 314 314 314 314 313 313 314 314 314 315 315 315 315 315 315 315 315 316 316 316 316 316 316 316 317 317 318 318 319 319 320 320
309 310 309 311 313 312 312 310 310 315 315 311 306 310 312 313 314 316 314 313 311 312 313 312 310 309 311 316 314 310 311 312 313 312 311 311 311 311 312 313 314 315 315 316 316 316 316 316 317 316 316 316 316 316 315 315 315 315 315 315 314 315 315 315 315 315 315 315 316 316 316 316 316 316 316 316 316 315 316 315 316 316 316 317 317 317
308 308 308 311 312 310 308 306 307 312 311 308 310 313 314 313 313 313 312 311 311 312 312 308 307 309 309 314 315 311 310 311 312 312 311 312 311 311 312 312 314 314 315 315 315 316 316 316 316 316 316 316 316 316 316 316 316 316 316 316 316 316 316 316 316 316 316 316 316 316 316 316 315 315 315 315 315 315 315 314 314 315 314 314 314 314
310 310 310 310 307 307 309 308 306 307 307 310 314 314 314 313 313 312 311 311 312 312 309 305 305 308 309 311 313 310 308 309 312 313 311 312 312 311 311 312 313 314 314 315 315 315 315 315 315 315 315 315 315 316 315 316 316 316 316 316 316 316 316 316 316 316 316 315 315 315 315 315 315 315 315 315 315 314 314 315 315 315 314 314 314 314
313 312 311 309 307 308 312 312 308 308 309 312 314 314 313 314 313 313 313 312 312 311 306 305 306 308 310 312 311 309 309 309 311 312 312 312 312 311 311 311 312 313 314 314 314 315 315 315 315 315 315 315 315 315 315 315 315 315 315 315 315 315 315 315 315 315 315 315 315 315 315 315 315 315 315 315 315 314 315 315 315 315 315 315 314 314
314 314 311 311 310 309 312 313 311 311 311 312 315 314 313 314 313 313 311 309 310 309 305 305 307 309 311 312 311 311 310 309 309 309 310 311 311 311 311 311 312 313 313 314 313 314 314 314 314 314 315 315 315 315 315 315 315 315 315 315 315 315 315 315 315 314 315 315 314 315 314 314 314 314 314 314 314 314 314 314 314 314 314 314 314 314
315 314 312 313 311 310 311 311 312 313 312 313 316 315 313 314 314 312 311 311 310 309 306 305 307 311 312 310 309 309 308 307 307 307 309 310 310 310 311 311 312 312 313 313 313 313 313 313 314 314 314 314 314 314 314 314 314 314 314 314 314 314 314 314 314 314 314 314 314 314 314 314 314 314 314 314 314 314 314 314 314 314 314 314 314 314
315 313 310 309 308 309 311 310 310 313 313 311 311 313 313 314 313 309 307 309 308 309 309 308 309 312 312 309 307 306 306 306 306 307 308 310 310 311 311 311 311 312 313 313 313 313 313 313 313 313 313 313 313 314 314 314 314 314 314 314 314 314 314 314 314 314 314 314 314 314 314 314 314 314 314 313 314 314 314 314 314 313 314 313 313 313
312 312 311 309 308 308 310 309 308 311 313 311 310 312 310 311 314 310 305 304 305 309 311 310 311 312 311 310 308 307 308 307 306 306 308 310 311 310 311 311 311 312 313 313 313 313 313 313 313 313 313 313 313 313 313 313 313 313 313 313 313 313 314 314 314 314 314 313 313 314 314 314 313 313 313 313 313 313 313 313 313 313 313 313 313 313
313 312 311 311 311 308 307 307 307 307 309 312 313 312 308 309 312 311 309 308 307 309 310 309 310 310 310 310 309 308 310 309 307 307 308 310 311 311 311 311 311 312 313 313 313 313 313 313 313 313 313 313 314 313 314 313 313 314 313 313 313 314 314 314 314 313 314 313 313 313 313 313 313 313 313 313 313 313 313 313 313 313 313 313 313 313
315 313 310 309 312 310 307 310 311 308 307 310 311 310 310 311 311 309 310 311 310 310 310 308 307 308 310 311 310 310 311 309 308 308 308 310 311 311 311 311 311 312 312 313 313 313 313 313 314 314 313 314 314 314 314 314 313 314 313 313 314 313 314 313 313 313 313 313 313 313 313 313 313 313 313 313 313 313 313 313 313 313 313 313 313 313
315 315 313 310 310 311 310 312 314 312 308 307 307 308 310 312 311 310 310 310 311 310 310 309 307 308 311 311 310 311 311 310 309 308 309 312 312 311 311 311 312 312 312 313 313 313 314 313 314 314 314 314 314 313 314 313 313 313 313 313 313 313 313 313 313 313 313 313 313 313 313 313 313 313 313 313 313 313 313 313 313 313 313 313 313 313
313 313 314 311 310 311 312 312 314 315 311 308 309 309 310 310 309 310 309 308 309 309 309 309 308 310 311 310 310 311 311 310 309 309 311 312 311 311 311 311 312 312 312 313 313 313 313 313 314 313 313 314 313 313 313 313 313 313 313 313 313 313 313 313 313 313 313 313 312 312 312 312 311 311 311 311 311 311 311 311 311 311 311 311 311 311
312 312 314 313 311 312 313 310 309 312 312 311 310 310 312 311 310 311 311 307 307 308 308 308 309 311 311 307 307 308 308 309 310 311 312 311 311 311 311 311 312 312 313 313 313 313 313 313 313 313 313 313 313 313 313 313 313 313 313 313 313 313 313 313 313 312 312 311 311 311 310 310 310 310 309 309 309 309 309 309 308 309 309 309 309 309
312 313 314 312 312 312 310 306 303 306 310 311 310 311 312 312 312 313 313 310 306 305 306 306 308 311 309 303 303 305 304 306 309 312 311 311 310 310 311 311 312 312 313 313 313 313 313 313 313 313 313 313 313 313 313 313 313 313 313 313 313 313 312 312 312 311 311 310 310 310 309 309 308 308 307 307 307 307 307 306 306 306 306 306 306 306
311 315 314 311 311 310 308 307 304 305 309 310 310 310 311 312 313 312 311 311 309 307 308 308 309 312 310 304 302 303 301 302 306 311 311 310 310 310 310 310 311 312 312 313 313 313 313 313 313 313 313 312 313 313 313 313 313 313 313 312 312 312 312 311 311 310 310 310 309 308 308 307 307 306 306 306 306 305 305 305 304 304 304 304 304 304
312 315 315 312 312 312 311 311 310 309 310 310 312 311 311 313 312 309 308 310 310 310 311 310 311 312 311 306 303 302 301 302 305 309 311 310 310 310 309 310 310 312 312 313 313 313 313 313 313 313 313 312 313 312 312 312 312 312 312 312 312 311 310 310 309 309 309 308 308 307 306 306 306 305 305 305 304 304 304 303 303 303 303 302 302 302
314 316 315 313 315 315 314 314 315 314 311 311 313 313 312 312 312 311 310 310 310 310 310 311 312 311 309 308 306 303 302 304 306 308 309 310 310 310 309 310 310 311 312 312 312 313 312 313 313 312 312 312 312 312 311 312 312 312 312 311 310 310 309 308 308 308 308 307 306 306 305 305 305 305 305 304 304 303 303 302 302 302 302 301 301 301
316 316 314 314 315 315 315 316 317 317 314 313 315 314 313 311 311 313 312 310 311 311 309 311 314 312 310 309 308 305 304 306 307 307 308 309 310 310 309 310 310 311 312 312 312 312 312 312 312 312 312 312 312 312 311 311 311 311 311 310 309 308 308 307 307 307 306 306 306 305 305 305 304 304 304 303 303 302 302 302 301 301 301 301 301 301
316 314 313 315 315 315 316 316 315 317 316 315 315 314 312 311 311 313 313 313 314 312 310 313 315 313 311 310 310 307 306 307 308 308 308 309 310 309 309 309 310 311 312 312 312 312 312 312 312 311 312 311 311 311 311 310 309 309 309 308 307 307 306 306 306 305 305 305 304 304 303 303 303 303 302 302 302 302 301 301 301 301 301 300 300 300
315 313 314 315 314 314 315 313 314 315 315 315 316 314 312 311 311 313 314 314 314 313 313 315 315 313 312 311 310 309 307 309 309 308 309 309 310 309 309 310 311 311 312 312 312 312 311 311 311 311 311 310 310 310 308 307 307 307 307 306 305 305 304 304 304 304 303 303 303 302 302 302 302 301 301 301 301 301 301 301 300 300 300 300 300 299
312 314 316 314 312 313 313 312 313 314 314 315 315 314 312 311 311 312 313 314 314 313 315 317 315 313 312 312 311 310 308 309 309 308 308 309 310 310 310 310 311 311 311 311 311 311 311 311 310 310 310 309 309 308 306 305 305 305 305 304 304 304 303 303 303 302 302 302 301 301 301 301 301 301 301 301 300 300 300 300 300 299 299 299 299 299
310 315 316 313 311 313 313 311 311 312 313 315 314 313 312 311 312 312 313 314 313 313 315 315 314 313 312 310 310 309 308 308 308 308 308 308 310 310 310 310 311 311 311 311 311 311 310 310 310 309 309 308 307 306 305 304 304 304 304 303 303 303 302 302 302 301 301 301 301 301 300 300 300 300 300 300 300 299 299 299 299 299 299 299 298 298
310 313 314 312 311 313 311 309 310 310 311 313 314 313 312 311 312 312 313 314 313 313 314 313 312 312 311 309 309 307 306 307 308 308 308 308 309 310 310 310 311 311 311 311 311 310 310 310 310 309 308 307 306 304 303 303 303 303 303 302 302 302 301 301 301 301 300 300 300 300 300 300 300 299 299 299 299 298 298 298 298 298 298 298 297 297
312 312 312 311 312 312 308 307 310 310 310 311 312 313 312 312 312 312 312 313 313 313 313 312 312 313 311 311 312 310 307 307 308 308 308 308 309 309 310 311 311 311 311 311 311 310 310 310 309 308 307 305 304 303 303 303 303 302 302 302 301 301 301 300 300 300 300 300 299 299 299 299 299 298 298 298 298 298 298 297 297 297 297 297 297 297
313 313 311 311 312 312 305 306 311 311 310 311 313 313 313 311 311 312 312 312 312 312 312 312 313 313 312 311 313 312 309 308 309 309 309 309 309 309 310 311 311 311 311 310 310 310 309 309 308 306 305 304 303 303 302 302 302 301 301 301 300 300 300 300 299 299 299 298 298 298 298 298 298 297 297 297 297 297 297 297 297 297 296 296 296 296
313 312 310 309 311 310 304 307 310 311 311 313 313 313 312 310 311 313 313 312 311 311 312 312 312 311 311 311 311 311 309 309 308 308 309 309 309 310 311 311 311 311 311 310 310 309 309 308 306 305 304 303 303 302 302 301 301 300 300 300 300 299 299 299 298 298 298 298 297 297 297 297 297 297 297 297 297 297 296 296 296 296 296 296 296 296
312 311 309 308 308 308 307 309 311 312 313 314 312 309 308 309 310 311 313 312 311 310 311 311 311 311 310 309 309 309 309 308 308 308 308 308 309 310 310 311 311 311 311 310 309 309 307 306 305 304 303 303 302 301 301 300 300 300 300 299 299 299 298 298 298 298 297 297 297 297 297 297 297 297 297 296 296 296 296 295 295 295 295 295 295 295
311 311 310 309 309 309 310 310 311 313 313 315 314 309 307 309 310 310 312 312 310 310 310 310 310 311 310 308 308 308 307 307 308 308 308 308 308 309 309 310 310 310 310 309 308 307 306 305 304 304 303 302 301 300 299 299 299 299 299 299 298 298 298 298 297 297 298 297 297 297 297 297 296 296 296 295 295 295 295 295 295 295 295 295 295 295
310 312 313 312 310 310 310 310 311 313 313 314 315 312 308 308 309 310 311 312 312 311 309 309 310 310 309 307 307 306 307 308 310 310 309 308 308 308 309 309 310 309 309 308 307 305 305 304 303 302 302 301 300 299 299 299 299 298 298 298 298 298 298 297 297 297 297 297 297 296 296 296 295 295 295 295 294 294 294 294 294 294 294 294 294 294
311 313 313 312 311 310 311 312 312 312 312 313 315 313 308 307 309 309 310 312 313 310 309 309 310 310 309 308 306 306 308 310 312 311 311 310 309 309 309 309 308 308 307 306 305 304 304 303 302 301 300 299 299 299 298 298 298 298 297 297 297 297 297 297 297 297 296 296 296 295 295 294 294 294 294 293 293 293 293 293 293 293 293 293 293 293
311 312 312 312 312 311 311 312 313 312 313 314 313 309 307 307 309 311 313 314 312 310 309 309 309 309 309 308 307 308 310 312 312 311 311 310 309 308 308 308 308 307 306 304 303 303 302 301 300 299 299 298 298 298 298 297 297 297 297 297 297 297 297 297 296 296 295 295 294 294 293 293 293 293 292 292 292 292 292 292 292 292 292 292 292 292
310 311 311 312 313 313 312 313 313 313 315 314 310 306 306 308 311 314 316 314 310 310 310 309 309 309 309 308 307 309 310 310 310 310 310 310 308 307 306 306 306 305 304 303 302 301 300 299 299 298 298 298 297 297 297 297 297 297 297 297 297 296 296 296 295 294 294 293 293 292 292 292 292 292 292 292 291 292 292 291 291 291 291 291 291 291
311 311 312 312 313 313 313 313 313 314 314 310 307 305 306 310 314 314 313 311 310 310 310 310 310 310 309 307 308 309 309 309 308 309 309 309 307 306 305 304 304 303 302 301 300 299 298 298 298 297 297 297 296 296 296 296 296 296 296 296 296 295 295 294 294 293 292 292 292 292 291 291 291 291 291 291 291 291 291 291 291 291 291 290 290 290
312 312 312 312 313 313 313 314 315 316 312 308 307 307 307 310 313 312 309 308 309 310 310 310 310 311 310 308 308 307 307 307 307 307 308 308 306 305 304 303 303 302 301 299 298 298 297 297 297 296 296 296 296 296 296 296 296 296 296 295 295 294 293 293 292 292 291 291 291 291 291 291 291 291 291 290 290 291 291 291 291 291 291 290 290 290
312 312 313 312 313 313 313 315 315 313 308 308 310 311 309 309 310 310 309 309 309 309 310 310 310 310 310 310 308 307 306 307 307 307 307 306 305 304 303 302 301 300 299 298 297 297 296 296 296 296 296 296 296 296 296 296 295 295 294 294 293 293 292 291 291 291 291 291 291 290 290 290 290 290 290 290 290 290 290 290 290 290 290 290 290 290
311 311 311 312 313 312 312 313 312 309 307 308 310 310 310 309 309 309 310 310 309 309 309 309 310 310 309 309 308 307 307 306 306 306 306 305 304 303 302 301 299 298 298 297 296 296 295 295 295 295 296 296 296 296 295 295 294 294 293 292 292 291 291 291 291 290 290 290 290 290 290 290 290 290 290 290 290 290 290 290 290 290 290 290 290 290
306 305 308 310 312 311 310 309 308 307 306 307 308 308 309 310 310 310 310 309 310 310 310 310 310 310 309 309 308 307 306 306 306 305 305 304 303 301 300 299 298 297 297 296 296 295 295 295 295 296 296 296 295 295 294 294 293 292 292 291 291 291 290 290 290 290 290 290 290 290 290 290 290 290 290 289 289 289 289 289 289 289 289 289 289 290
304 304 306 309 311 312 312 311 309 308 307 307 307 308 308 309 310 310 309 309 309 310 310 310 309 309 309 309 308 308 307 306 306 305 304 303 301 300 299 298 297 296 296 296 295 295 295 295 296 296 295 295 294 294 293 292 292 291 291 290 290 290 290 290 290 290 290 290 290 290 289 289 289 289 289 289 289 289 289 289 289 289 289 289 289 289
305 305 307 309 309 309 310 308 306 306 305 305 306 306 307 309 310 309 309 308 309 309 309 309 309 309 309 308 308 308 307 306 306 305 304 302 301 299 298 297 297 296 296 295 295 295 295 296 295 295 294 294 293 292 291 291 290 290 290 290 290 290 290 290 289 289 289 289 289 289 289 289 289 289 289 289 289 289 289 289 289 289 289 289 289 289
304 304 306 308 308 307 307 305 303 304 305 304 305 306 308 308 309 309 308 308 308 308 308 308 308 308 308 307 307 307 307 306 305 305 304 302 300 299 298 297 296 296 295 295 295 295 295 295 295 294 293 292 291 291 290 290 290 290 290 290 289 289 289 289 289 289 289 289 289 289 289 289 289 288 288 288 288 288 288 288 288 288 288 288 288 289
302 304 305 306 307 307 308 306 304 306 308 307 306 307 308 308 308 308 308 308 308 308 308 308 307 307 307 307 307 306 306 306 304 304 303 301 299 298 297 297 296 295 295 295 295 295 295 294 293 293 292 291 290 290 289 289 289 289 289 289 289 289 289 289 289 289 289 289 288 288 288 288 288 288 288 288 288 288 288 288 288 288 288 288 288 288
302 304 304 305 306 306 306 305 304 305 306 306 306 307 307 306 307 308 308 308 308 307 307 307 307 307 306 306 306 306 306 306 304 303 302 300 299 298 297 296 295 295 295 295 295 295 294 293 292 291 291 290 290 289 289 289 289 289 289 289 289 289 289 289 289 288 288 288 288 288 288 288 287 287 287 287 287 287 287 287 288 288 287 287 287 288
Wind_Speed
6 6 6 7 8 10 7 3 3 4 6 9 7 3 4 3 2 1 2 3 1 3 4 4 6 10 10 11 12 10 8 11 13 14 16 16 16 16 16 17 18 19 19 16 15 16 17 19 21 22 22 21 21 21 21 21 21 21 21 21 21 21 22 22 23 22 22 22 21 21 22 22 22 22 22 21 21 22 21 21 21 20 19 19 19 19
4 7 7 4 5 8 6 4 6 7 6 8 6 5 3 1 2 2 1 2 2 2 2 1 5 10 10 11 12 9 6 8 10 10 13 15 17 17 18 19 20 21 21 19 19 19 19 20 21 22 22 22 22 22 22 21 21 21 21 21 21 21 22 22 23 23 23 22 22 22 21 21 20 20 20 19 19 20 19 19 19 19 19 20 20 21
4 6 4 5 6 10 7 3 7 8 6 5 4 5 3 2 3 2 1 2 1 2 1 1 4 9 9 10 10 7 5 7 8 10 13 15 17 17 18 19 21 23 23 22 21 22 23 23 24 23 23 23 23 24 23 22 22 22 22 22 22 22 22 22 23 23 23 22 22 22 21 20 20 19 18 18 18 19 19 18 19 20 20 21 21 21
6 3 3 7 9 11 6 2 7 8 4 3 3 5 3 2 2 2 3 2 1 1 2 1 4 8 7 6 4 2 4 4 4 6 9 10 12 13 13 16 18 19 20 20 20 22 24 26 27 27 26 25 25 26 25 25 25 25 24 24 24 23 23 23 23 22 22 23 22 21 20 19 19 19 18 19 19 19 19 19 19 20 20 22 24 24
3 3 3 6 6 8 8 5 7 7 3 0 2 4 3 5 3 1 4 4 1 0 1 1 5 5 3 3 3 1 2 2 2 1 1 2 4 6 7 10 11 12 13 13 14 18 21 24 26 28 28 29 29 29 29 29 29 28 28 27 26 25 24 24 23 22 22 23 22 21 20 19 19 18 18 19 19 18 19 19 18 19 19 20 23 23
2 2 4 6 3 6 8 7 6 6 4 2 3 2 2 7 6 4 6 5 3 3 1 2 5 3 1 2 3 1 2 2 2 3 3 3 1 1 2 4 6 7 8 9 9 11 14 17 19 21 24 26 26 27 28 29 29 28 27 26 26 25 24 23 22 22 21 21 20 19 18 17 17 17 16 17 16 16 16 15 16 16 16 17 18 19
2 2 3 4 6 6 6 6 4 3 4 3 2 2 3 7 9 8 7 4 2 2 2 1 4 2 0 2 3 1 0 3 3 3 4 4 4 3 3 5 6 8 8 8 7 7 8 9 11 13 15 16 17 18 20 22 24 25 24 23 23 22 21 20 19 19 18 18 17 16 15 15 15 15 15 15 14 13 14 14 15 15 16 17 18 18
4 4 1 3 7 6 6 6 4 5 5 3 1 3 7 8 8 8 6 2 0 1 1 0 2 3 3 1 2 0 2 4 3 3 5 5 5 6 6 8 10 11 11 11 9 8 7 7 7 7 8 9 10 10 11 12 14 17 18 19 19 19 18 17 16 16 15 14 14 13 12 12 12 13 12 12 13 13 13 15 15 16 17 17 18 18
3 5 5 5 6 5 4 1 2 5 3 1 0 2 5 6 6 5 3 2 2 1 3 1 3 4 4 1 2 1 3 4 3 3 4 5 6 7 9 11 12 14 14 14 13 12 11 10 9 9 8 8 7 7 7 7 8 10 12 13 14 14 13 12 11 11 10 10 9 9 9 9 10 10 10 12 13 13 14 15 15 16 17 18 18 18
1 3 4 3 4 4 2 4 2 1 2 4 5 5 6 5 5 3 2 3 2 3 4 2 2 4 4 2 2 1 2 5 4 3 3 4 6 9 13 14 16 17 17 18 17 16 15 14 13 12 12 11 11 10 10 9 10 10 10 10 10 10 9 8 7 7 7 6 7 7 7 8 8 9 10 12 13 13 14 14 15 16 16 17 18 19
1 2 2 1 1 4 5 6 5 4 5 11 8 7 8 5 3 3 2 2 1 4 2 2 3 3 3 2 3 2 2 3 6 5 4 5 7 10 14 17 19 21 21 21 21 21 20 19 18 17 17 16 15 15 14 13 13 12 12 11 10 9 8 7 7 7 7 7 7 7 7 7 8 9 10 11 11 11 12 13 13 14 15 16 18 19
2 4 2 2 4 7 6 7 7 4 5 6 4 6 7 3 1 2 2 0 4 4 1 3 3 3 4 2 1 0 1 1 5 8 8 8 9 10 15 18 21 23 24 24 23 23 23 22 21 21 20 20 19 18 17 15 14 13 12 11 10 9 8 8 7 7 6 6 6 5 5 5 5 6 6 7 8 9 10 11 12 13 14 15 17 18
3 3 2 2 4 5 4 7 6 2 1 1 4 8 6 3 2 3 2 2 4 2 2 2 2 3 6 4 1 1 2 3 4 8 10 11 10 11 15 19 22 24 25 25 24 23 23 21 20 19 19 18 17 16 15 14 13 12 12 11 10 10 9 8 7 6 5 5 4 3 2 1 1 2 3 4 5 6 7 9 10 12 13 14 15 17
3 1 1 3 3 6 4 5 5 4 5 5 7 7 5 4 4 5 3 1 3 0 2 1 1 2 4 4 4 5 6 7 6 8 10 11 12 13 17 20 22 25 26 27 26 25 24 22 21 20 19 18 17 17 16 15 15 14 14 13 12 12 11 10 9 9 8 7 6 6 5 5 5 5 5 6 6 7 8 9 10 11 12 13 14 15
4 2 4 3 2 4 3 1 2 5 5 3 1 1 3 3 3 4 3 1 1 2 2 1 1 3 2 1 1 1 4 7 6 5 9 11 13 15 18 20 22 25 26 27 27 26 25 24 23 22 21 20 19 19 18 17 16 15 14 14 12 12 11 10 9 8 7 6 6 5 5 5 5 5 6 6 7 8 9 10 11 12 12 13 14 14
2 1 1 1 1 2 2 2 2 5 5 1 1 0 1 1 2 2 1 0 1 1 2 3 3 3 1 1 1 2 1 4 5 6 10 12 13 16 18 19 22 25 26 26 26 25 25 24 23 22 21 20 18 17 16 14 13 11 11 10 9 8 8 7 6 6 5 4 4 4 4 4 4 5 5 6 7 8 9 10 11 12 13 14 13 14
2 1 2 2 2 2 1 1 2 1 3 2 2 3 2 1 3 4 1 2 1 3 2 3 4 3 1 3 2 2 2 3 4 8 11 14 15 15 17 19 22 24 25 25 24 24 23 23 22 21 19 18 16 15 13 12 10 9 8 7 6 6 6 5 5 5 4 4 4 4 5 5 5 5 6 6 7 8 9 9 10 11 12 13 13 14
3 3 2 1 3 2 2 3 4 5 3 2 4 5 3 1 1 2 1 1 0 3 1 2 4 3 3 3 3 4 6 5 6 8 11 15 16 15 17 20 22 24 24 24 23 23 22 21 20 19 18 17 15 13 12 10 9 7 7 6 6 5 5 5 5 5 5 5 5 5 6 6 6 6 6 7 7 8 8 9 10 10 11 12 13 13
1 3 2 1 1 1 2 1 4 4 5 2 2 4 3 2 2 2 2 2 2 3 2 2 2 3 5 4 4 8 11 9 9 9 10 15 16 16 18 20 21 23 24 23 23 21 20 19 18 16 15 14 13 11 10 9 8 6 5 5 4 4 4 4 4 5 5 5 5 6 6 6 6 7 7 7 7 8 8 9 10 11 11 12 13 14
1 1 2 1 1 0 1 3 5 4 3 3 2 3 0 2 2 2 2 1 3 3 2 1 1 3 6 5 7 12 14 12 12 10 11 17 18 17 20 22 22 24 24 23 21 20 18 17 15 14 13 11 10 9 8 8 6 5 5 4 3 4 4 4 4 4 4 4 5 5 6 6 6 6 7 7 8 8 9 10 11 12 13 14 15 16
1 1 2 2 1 2 3 2 4 5 5 3 4 5 3 1 1 1 1 1 1 3 2 2 2 3 2 3 6 8 9 12 14 12 13 17 19 20 23 24 24 24 23 22 20 18 17 15 14 13 12 10 9 8 8 7 6 5 4 3 3 3 3 3 3 3 3 4 4 5 5 6 6 7 7 8 9 10 11 12 13 14 15 16 17 18
1 1 4 4 2 3 2 1 2 1 1 2 3 4 5 4 3 3 4 1 1 1 1 1 3 3 1 1 2 2 3 7 13 15 15 17 20 23 24 23 23 23 22 21 19 17 15 15 14 12 11 10 10 9 8 7 6 6 5 4 4 3 3 3 2 2 2 3 3 4 5 5 7 7 8 9 10 11 12 12 13 14 14 15 16 17
2 3 4 3 2 1 2 2 1 2 2 1 1 1 3 3 4 5 5 3 3 1 1 1 3 3 1 1 2 1 1 4 10 16 17 19 23 25 23 22 22 22 22 20 18 16 15 14 13 12 12 11 10 9 8 7 7 7 6 5 5 5 4 4 3 2 2 2 2 4 5 6 7 8 9 10 11 12 12 13 14 14 15 16 16 17
3 3 4 3 1 0 1 1 1 1 1 2 3 2 2 3 2 1 1 2 4 4 3 2 4 3 2 1 2 3 4 4 9 16 20 22 26 26 23 22 22 22 22 20 18 16 14 13 12 12 11 10 10 9 8 8 8 7 7 6 6 5 4 3 2 1 1 2 4 5 6 7 8 9 10 11 12 13 14 15 16 16 17 17 18 19
6 3 4 4 2 1 1 2 2 2 3 4 2 2 3 2 4 4 1 1 2 5 6 5 6 4 1 2 1 2 4 6 10 19 25 26 27 27 23 22 22 22 22 20 18 16 14 13 12 12 11 11 10 10 9 9 8 7 7 6 5 4 3 2 1 1 2 3 5 6 7 8 9 10 11 13 14 15 16 17 18 19 20 20 20 21
7 2 5 6 5 6 6 7 6 5 4 2 2 4 6 7 7 4 2 2 4 4 5 6 7 1 1 1 2 3 6 7 11 18 24 25 27 27 24 23 24 23 22 20 18 16 14 13 13 12 11 10 10 9 9 8 8 7 7 6 5 4 3 1 0 1 2 3 5 6 7 9 10 11 12 14 15 16 17 18 19 20 21 22 22 23
3 1 6 8 9 9 9 8 4 5 6 6 8 8 8 9 8 4 3 4 5 3 4 9 7 3 3 3 3 5 9 10 11 17 22 25 27 27 25 25 24 24 23 21 18 16 15 14 14 13 12 11 10 9 9 10 10 10 9 7 5 4 3 1 0 1 2 4 5 7 8 10 11 13 14 15 16 17 18 19 20 20 21 22 23 24
2 3 8 10 12 7 2 3 4 5 8 11 11 10 9 9 10 8 8 9 5 5 7 10 6 6 7 6 6 8 9 9 11 18 25 29 29 27 25 24 24 24 23 22 19 18 16 15 15 14 13 12 12 12 12 12 11 10 9 7 5 4 3 1 1 2 3 5 6 8 9 10 12 13 14 16 17 18 19 20 21 22 22 23 24 25
2 7 8 8 12 5 4 2 4 5 6 6 8 11 11 11 13 14 15 12 8 8 12 7 8 11 10 8 8 10 13 16 19 26 30 30 29 27 25 25 26 26 26 24 21 19 17 17 16 15 14 14 14 14 14 13 11 9 8 7 5 4 2 1 2 3 4 5 7 8 10 11 12 14 15 16 17 18 19 20 21 23 23 24 25 26
3 5 5 7 10 5 3 1 2 3 4 4 6 10 12 13 14 17 17 14 11 13 11 3 7 13 9 7 8 14 20 21 20 24 27 27 28 27 27 28 29 29 28 24 21 20 18 17 16 15 15 15 15 15 13 11 9 8 7 5 4 3 1 1 3 4 6 7 9 10 11 13 14 15 16 18 19 20 21 22 23 24 25 26 27 28
3 3 3 5 6 3 3 2 1 2 2 4 4 6 10 12 13 16 18 15 12 14 8 3 4 10 5 6 7 13 18 15 13 20 26 29 31 30 30 31 31 29 27 24 22 20 18 17 16 16 16 16 15 14 12 10 9 7 6 4 3 2 2 3 5 7 8 10 11 13 14 15 17 18 20 21 22 23 24 26 27 28 29 30 31 32
4 2 3 4 5 4 1 2 4 4 2 2 3 7 12 13 14 13 11 9 11 14 8 3 6 8 5 8 6 8 13 13 13 20 26 31 33 32 32 33 31 29 27 24 22 20 18 18 17 16 16 16 15 13 11 10 8 6 5 4 2 2 3 5 6 8 10 11 13 15 16 18 19 21 22 23 25 26 27 29 30 31 32 33 34 34
5 4 3 4 7 4 2 1 5 6 2 4 7 12 17 15 12 8 3 4 11 13 9 7 8 5 7 10 7 5 9 13 17 23 29 34 36 32 30 31 29 27 26 24 22 20 19 18 17 17 17 15 14 12 10 9 8 6 5 3 2 3 4 6 8 10 11 13 14 16 17 18 19 21 22 24 26 27 28 30 31 32 33 34 35 35
5 5 4 4 5 2 1 1 5 4 7 8 6 10 15 15 11 8 7 11 13 11 9 8 5 2 6 10 9 8 13 20 26 31 33 35 38 34 29 27 26 25 24 23 21 20 19 19 18 17 16 14 13 12 10 9 7 5 4 3 3 5 6 8 9 10 12 13 15 16 18 20 21 23 25 26 28 29 30 31 32 33 34 35 35 36
7 6 3 2 2 2 1 2 5 7 9 5 1 1 7 11 13 13 14 14 13 12 12 11 7 5 9 14 15 15 20 25 28 31 30 32 35 33 28 26 25 24 24 23 22 21 20 19 18 17 15 14 13 11 9 8 6 4 4 4 5 7 8 9 10 12 13 15 17 19 21 23 25 26 28 29 30 31 32 33 34 34 35 36 36 37
7 6 3 2 2 3 3 6 7 4 3 1 1 1 2 5 9 11 12 10 9 10 11 13 13 10 11 17 17 13 15 19 21 25 29 30 30 29 26 24 24 24 25 24 23 22 21 20 18 17 15 14 12 10 8 6 5 3 4 5 7 8 10 11 12 14 16 18 21 23 25 27 29 30 31 32 32 33 34 34 35 35 36 37 38 38
5 6 4 4 3 2 4 6 3 5 4 4 4 4 5 6 9 10 8 9 10 13 14 14 15 10 10 14 16 12 11 10 10 18 27 28 28 30 28 24 24 26 26 24 22 21 21 20 18 17 15 14 12 10 8 6 4 4 5 7 8 9 11 13 15 17 19 22 24 26 27 29 31 32 32 33 34 34 35 36 36 37 38 39 40 40
2 3 4 5 4 2 3 4 2 4 8 7 3 4 9 13 15 13 8 8 8 16 23 19 13 9 10 11 14 12 9 5 4 13 24 26 27 31 29 25 25 26 24 23 23 22 22 20 19 17 15 14 11 9 7 5 4 4 6 8 9 11 13 15 17 19 21 23 25 26 28 29 31 32 33 34 34 35 36 36 37 38 38 39 41 41
2 1 2 4 3 4 5 5 6 7 8 4 3 5 12 18 16 11 6 8 4 15 28 23 12 11 15 18 20 14 8 5 5 12 24 27 27 30 29 26 26 25 23 24 23 23 22 20 18 17 14 13 10 7 6 4 4 5 7 9 11 13 15 17 19 21 22 24 25 26 27 28 29 31 32 33 34 35 35 36 37 37 38 39 40 41
3 1 3 6 6 6 6 6 5 5 4 2 2 5 14 21 18 12 5 8 5 16 27 24 17 20 24 26 24 15 8 10 9 12 23 28 26 25 25 25 26 26 25 25 23 22 21 19 17 15 12 11 8 6 5 4 5 6 8 11 13 15 17 19 20 22 22 23 24 25 25 26 28 29 31 32 34 34 35 36 37 38 39 40 41 42
2 2 3 6 7 6 7 7 4 3 4 3 2 8 19 20 14 8 6 3 10 18 22 24 26 29 29 28 26 20 19 20 14 10 17 24 24 24 24 24 26 26 25 25 23 21 20 17 15 13 11 9 7 5 4 4 5 8 10 13 15 17 19 20 21 22 22 23 23 24 25 26 27 29 30 32 34 35 36 36 38 40 41 42 43 44
5 4 3 4 6 5 5 4 3 4 5 6 7 11 16 11 5 7 4 7 12 15 17 21 26 27 26 29 31 29 26 23 15 9 13 22 27 27 27 26 27 26 25 24 22 20 18 16 14 12 10 8 6 4 4 5 7 10 13 15 17 18 20 20 21 21 22 22 23 24 26 27 28 30 31 33 34 36 37 38 39 41 42 43 45 46
6 6 5 5 5 4 3 5 6 5 3 16 17 9 6 4 1 6 9 8 9 10 12 18 21 21 23 27 31 29 22 18 16 13 16 23 27 28 28 27 27 26 25 23 21 19 17 14 12 10 8 6 4 4 6 8 10 12 14 16 18 19 20 20 20 21 22 24 25 26 28 29 30 31 32 33 35 36 37 38 39 40 42 43 45 46
6 6 5 5 6 5 5 8 6 1 10 25 20 7 12 15 5 7 9 6 6 8 11 13 15 18 21 25 27 27 22 18 18 18 20 25 27 28 28 27 26 26 25 23 21 18 15 13 11 8 6 5 5 6 8 10 12 14 15 17 18 19 20 20 21 23 24 25 27 28 29 30 30 31 32 33 34 35 36 38 39 40 41 42 44 45
5 4 3 3 4 4 3 5 3 3 16 28 17 6 17 28 19 8 6 7 8 9 11 12 14 16 19 21 22 24 24 21 21 22 24 27 29 29 29 28 27 25 23 21 19 17 14 12 9 7 6 6 7 9 11 12 14 15 16 17 18 19 21 22 23 25 26 27 28 29 30 30 31 32 33 34 35 36 37 39 40 41 42 43 43 45
2 1 3 1 2 2 4 8 7 3 11 21 18 9 13 24 25 22 19 16 14 13 12 13 15 15 17 18 19 21 24 23 22 24 26 27 29 30 29 28 27 24 22 20 18 15 13 11 8 7 7 7 9 11 12 13 15 15 16 17 18 20 22 23 25 26 27 28 29 29 30 32 33 34 35 36 37 38 39 40 42 42 43 44 44 45
1 3 3 1 2 4 5 8 10 9 10 17 21 17 13 15 21 24 24 20 17 14 14 16 16 15 16 17 16 19 21 22 24 27 29 29 30 30 29 27 26 24 21 18 16 14 12 9 7 7 8 9 10 11 12 13 15 16 17 18 19 21 22 24 25 27 28 29 30 31 33 34 35 37 38 38 39 40 40 41 42 44 45 45 46 46
2 5 4 3 4 5 4 5 8 11 11 12 16 19 18 18 19 21 23 22 19 17 16 17 15 13 13 13 13 16 18 22 25 27 30 31 31 30 29 26 24 21 19 17 15 13 10 9 8 8 9 10 11 12 13 13 14 16 17 19 20 21 23 24 26 28 29 31 32 34 35 36 37 39 40 41 41 42 43 43 44 45 46 46 47 48
3 5 4 3 3 4 5 4 3 4 7 10 15 20 21 21 21 22 24 23 20 17 16 15 13 12 11 13 15 17 20 24 26 28 30 32 32 30 27 25 22 20 18 16 14 12 10 9 9 9 10 10 11 11 12 13 15 16 18 19 21 22 24 26 27 29 31 32 34 35 37 38 39 40 42 43 44 44 45 45 45 47 47 47 46 47
4 4 3 2 4 5 6 5 6 3 4 10 18 23 24 23 22 22 24 24 22 19 17 16 15 14 15 17 19 21 23 25 28 29 30 31 30 28 25 23 21 19 17 15 13 12 10 9 9 10 10 10 11 11 12 14 15 17 18 20 22 24 25 27 29 31 32 34 36 37 38 40 41 42 44 45 46 47 48 47 47 48 49 49 48 48
6 4 4 4 4 4 4 4 7 8 8 9 13 17 19 20 22 23 24 26 25 23 20 18 18 17 19 21 22 24 25 26 28 30 30 30 29 26 24 22 20 18 16 15 13 11 10 10 10 10 10 11 11 11 12 14 16 17 19 21 23 25 27 29 30 32 34 35 37 38 40 41 42 44 45 46 47 48 50 51 51 51 51 51 51 51
Wind_Direction
159 161 180 179 174 176 172 134 97 102 140 148 143 138 144 158 159 101 90 55 10 226 219 226 257 270 270 274 274 268 272 275 271 271 272 269 265 262 260 259 255 253 252 249 246 241 236 236 237 236 235 234 232 232 233 234 234 236 239 242 243 245 247 249 251 252 253 255 256 257 258 260 261 261 260 260 264 269 271 272 273 275 277 276 273 270
181 193 186 165 145 141 129 102 99 98 117 136 150 154 155 207 124 79 74 75 30 253 184 112 272 267 264 269 270 263 252 258 261 263 267 268 266 263 261 259 256 254 252 249 246 244 240 237 236 236 234 233 232 231 232 232 233 234 237 240 243 245 247 248 250 252 253 254 257 259 261 263 264 263 263 263 267 269 273 275 274 274 274 275 274 273
197 204 154 110 103 99 93 104 104 93 109 129 143 157 170 172 124 101 119 80 29 260 185 107 269 270 266 265 269 270 260 257 261 259 261 265 265 264 262 259 256 255 255 253 250 247 243 240 238 237 234 232 232 231 231 231 232 235 237 240 243 245 246 247 248 249 251 253 255 257 258 261 263 265 266 268 269 269 269 271 270 270 270 272 275 275
187 204 99 129 141 122 106 115 113 104 111 120 136 156 161 147 154 169 154 133 47 7 326 272 272 277 266 259 260 279 286 282 279 259 255 260 262 262 258 255 254 253 254 254 250 246 243 240 239 238 236 233 232 232 233 235 238 240 241 242 243 243 245 247 247 247 249 251 252 255 257 259 262 266 269 269 268 268 268 268 267 270 269 268 271 277
145 7 94 147 162 141 133 145 149 149 146 65 187 167 143 164 193 31 119 137 136 146 351 312 268 260 250 245 184 134 320 331 44 92 148 267 258 257 254 251 249 243 242 242 242 241 239 239 238 237 238 237 236 237 239 241 243 243 242 241 241 242 243 245 246 245 245 247 249 252 255 259 261 264 267 267 269 271 271 271 271 271 268 262 262 265
78 31 147 143 140 143 142 157 179 182 162 182 222 200 161 168 155 103 129 149 179 193 82 341 260 219 128 241 183 100 344 92 73 72 70 39 29 241 225 229 227 215 215 218 224 230 231 234 235 235 237 238 239 240 241 242 242 240 239 238 238 239 241 241 242 242 242 243 245 249 253 257 262 265 267 269 273 276 274 272 271 271 269 265 262 260
83 97 157 148 145 143 149 167 187 197 166 173 204 148 139 147 135 134 155 173 201 186 85 338 261 238 250 214 152 19 1 122 90 68 60 40 46 68 116 137 149 159 169 177 185 197 206 213 218 223 228 231 235 237 238 239 237 235 233 232 234 235 236 235 235 236 237 238 239 242 247 253 259 263 267 272 276 276 272 269 267 265 265 263 261 260
112 132 157 146 146 147 165 175 188 197 177 161 149 133 139 135 137 149 157 168 28 62 147 46 324 281 261 187 122 322 158 129 109 82 58 39 45 62 93 115 125 133 138 143 146 152 157 163 173 186 197 205 215 219 224 227 226 227 226 226 228 228 228 228 229 231 231 232 233 236 242 248 256 262 267 272 271 269 266 264 263 263 262 262 260 260
104 165 174 154 155 167 177 164 167 180 161 97 148 125 128 116 116 134 130 114 64 280 209 117 18 264 245 180 134 226 176 155 134 91 61 40 45 68 92 107 117 121 125 127 127 128 131 133 138 145 153 161 169 173 178 186 193 202 207 212 216 217 219 220 222 225 225 227 229 233 241 248 257 263 264 265 264 263 261 261 262 263 263 263 262 261
0 193 176 159 171 165 120 25 358 268 66 141 153 108 92 79 79 84 85 111 107 251 219 107 12 259 247 210 168 203 216 188 160 106 69 58 62 80 96 105 112 116 118 119 119 119 121 123 126 129 132 134 135 138 140 143 150 157 165 174 181 184 187 189 193 198 202 209 215 225 237 244 249 253 255 257 259 262 263 264 265 266 266 265 264 262
0 120 108 25 101 125 106 60 22 355 114 142 152 111 95 73 64 67 40 80 188 239 204 54 348 286 264 240 181 209 252 183 150 132 110 98 89 89 101 108 111 114 116 115 115 115 115 116 117 119 120 120 121 123 124 127 131 136 141 146 150 154 158 165 174 181 189 197 205 215 225 231 238 244 251 257 260 263 264 266 268 268 269 267 266 266
70 110 103 80 113 125 116 74 46 45 126 146 161 130 111 84 92 111 76 176 228 222 84 31 333 274 237 239 74 4 292 173 145 139 134 120 105 99 107 111 112 114 116 116 115 115 114 114 114 115 115 115 116 117 119 121 123 127 131 135 141 146 151 159 167 175 183 189 197 206 216 227 242 251 262 270 272 274 273 273 274 274 274 272 271 271
107 97 24 86 139 172 144 99 78 58 220 220 157 151 145 129 161 198 177 206 233 226 41 9 333 256 244 261 265 177 155 162 130 121 128 125 117 114 114 114 115 116 116 116 115 115 115 115 116 118 118 118 119 120 120 121 122 124 126 128 131 132 133 135 136 137 137 135 135 131 121 92 18 350 339 334 323 314 308 300 294 289 286 284 281 279
136 107 180 132 171 226 207 136 143 184 200 185 161 165 170 146 171 199 174 247 259 196 47 349 324 240 251 271 235 193 154 159 142 117 123 125 123 123 121 119 117 117 117 116 114 113 113 112 113 115 116 118 119 118 118 117 116 115 114 113 113 112 110 109 107 105 102 97 91 83 68 54 40 24 13 2 352 342 334 327 320 314 307 304 299 294
167 181 181 155 150 200 217 222 150 135 153 185 157 154 169 160 191 194 176 223 207 102 98 157 243 218 203 30 275 141 130 168 182 148 135 133 133 130 126 122 119 118 117 117 116 114 112 112 112 112 113 114 113 113 112 109 108 105 104 104 103 103 102 99 98 94 90 83 73 62 47 36 22 10 2 353 347 341 337 333 331 328 323 321 317 310
174 152 85 11 350 170 185 294 358 104 128 173 13 103 201 173 125 114 79 96 105 82 147 177 245 254 247 303 310 351 109 188 206 175 152 148 147 139 132 127 124 122 120 118 117 115 114 114 114 114 114 114 113 113 112 109 108 105 103 103 100 99 96 92 89 80 73 62 50 40 28 19 9 2 353 345 342 337 334 332 332 333 330 329 328 324
166 105 10 5 53 48 22 329 352 84 148 154 160 180 188 68 99 115 112 55 6 254 183 170 241 255 249 231 185 147 174 176 186 180 164 158 155 147 139 135 130 126 124 122 118 116 116 115 115 115 115 117 118 118 117 115 115 111 106 104 97 91 85 79 72 62 56 46 37 30 21 15 11 7 359 352 349 342 339 339 338 339 336 333 334 334
160 114 16 352 100 59 9 87 69 29 38 144 176 164 141 73 71 123 155 101 188 249 188 172 233 230 204 205 129 142 179 178 176 177 162 159 162 156 148 142 136 132 128 125 121 119 116 115 114 114 114 115 115 114 113 110 107 104 98 93 86 78 70 61 52 45 41 34 30 26 22 19 16 14 11 7 4 357 354 354 352 351 347 343 343 343
138 111 77 358 97 68 349 150 125 42 23 30 165 140 133 209 195 167 178 159 183 229 224 195 240 260 221 195 153 174 188 183 174 171 160 163 169 165 155 149 141 136 132 128 124 120 117 115 114 112 112 112 110 107 105 102 99 96 91 85 79 72 62 55 46 41 38 33 31 26 23 21 17 15 13 8 6 1 358 356 354 351 347 344 343 342
108 126 135 70 333 51 317 226 192 161 69 46 116 134 10 291 207 180 162 177 209 208 217 197 164 234 225 201 187 189 187 178 169 168 169 171 173 168 159 152 145 140 136 131 127 123 121 120 119 118 117 116 116 113 109 109 107 101 93 83 76 69 63 60 50 41 36 29 28 24 20 17 10 6 1 354 350 345 343 340 337 336 334 333 332 332
110 186 144 103 333 213 185 216 215 183 151 146 164 169 179 135 47 247 148 68 254 197 196 228 232 235 216 198 204 194 180 173 169 170 171 169 169 166 159 154 149 144 138 133 130 129 129 129 128 128 127 125 126 124 121 121 118 116 115 108 100 90 83 82 69 58 46 35 32 24 17 10 2 357 350 346 343 339 336 334 331 329 328 326 325 325
149 129 131 132 178 196 188 326 306 275 176 171 183 186 181 155 134 190 191 138 6 237 189 203 267 267 145 150 226 186 157 176 174 169 164 164 168 165 159 154 150 145 141 137 137 138 137 137 136 136 135 135 137 136 137 139 140 144 145 142 142 142 142 135 115 99 76 50 36 19 9 3 357 354 352 349 347 343 340 337 335 335 333 331 330 329
92 98 114 127 176 217 321 337 288 289 313 333 280 233 180 173 182 199 206 172 128 120 95 96 282 277 94 100 235 230 245 202 176 164 158 163 167 164 159 156 153 149 147 145 145 144 143 142 141 141 142 143 147 149 151 154 156 159 161 160 162 167 168 161 150 127 89 44 21 7 2 0 355 354 352 349 346 345 343 341 340 340 338 338 337 336
114 107 112 96 79 1 314 305 114 347 285 235 239 211 172 198 200 141 216 161 147 168 161 160 253 250 120 120 234 251 246 205 175 165 161 165 168 166 164 163 158 155 153 151 151 150 149 149 147 149 153 155 158 161 164 166 167 167 166 165 167 172 171 161 146 116 58 14 5 2 359 356 354 351 348 345 343 343 342 340 340 339 338 337 336 335
174 150 126 123 123 135 193 205 196 204 214 223 217 165 170 146 93 83 103 146 193 200 175 190 238 239 114 108 164 218 198 177 176 174 169 169 171 170 170 169 165 161 159 158 158 158 157 158 159 162 164 165 167 168 169 168 166 166 166 169 174 175 170 156 129 51 7 358 356 355 352 349 347 345 343 342 342 341 340 339 338 337 337 336 336 335
174 176 155 158 159 172 194 203 203 189 180 209 187 173 187 171 152 158 141 150 220 200 166 205 235 239 84 150 140 151 166 164 172 179 177 175 174 173 174 175 172 168 166 165 165 166 167 168 170 172 173 174 175 174 173 174 177 180 181 182 181 177 173 163 105 0 346 347 344 341 340 338 337 338 338 339 338 337 336 336 335 334 334 333 334 333
141 234 186 196 197 195 200 200 184 127 141 190 196 179 182 181 176 160 123 190 210 148 173 224 235 238 212 195 166 170 177 174 172 178 183 182 179 177 177 178 177 174 172 172 173 175 175 176 178 180 181 183 184 186 190 193 191 186 182 179 177 176 177 182 236 324 327 330 332 330 330 331 332 333 333 333 333 332 331 331 330 330 330 329 330 330
88 204 198 214 219 216 187 164 158 141 172 200 191 169 169 175 173 174 199 214 165 126 228 230 211 229 223 189 196 197 182 181 181 182 186 185 182 181 179 179 179 178 178 179 181 181 181 183 184 185 187 188 189 192 195 192 185 177 174 173 172 176 181 198 268 305 317 322 325 326 327 328 328 329 328 327 326 325 325 325 325 325 325 325 325 326
146 203 199 207 215 219 55 110 177 168 181 194 179 173 170 169 175 189 211 213 160 185 240 219 174 217 217 179 202 204 185 189 192 189 187 184 181 181 180 180 182 183 184 184 185 186 186 187 186 186 189 189 188 189 187 183 178 170 167 166 166 173 185 219 283 310 318 322 325 327 327 328 327 326 325 324 323 322 321 321 321 321 321 322 322 323
183 197 177 186 211 209 77 75 212 161 164 173 178 180 171 171 186 197 212 215 195 214 238 161 176 225 212 170 206 210 199 196 190 187 188 184 183 183 183 186 187 187 188 188 189 191 190 189 189 187 188 187 185 183 181 177 173 166 164 165 168 181 221 289 310 322 326 329 331 331 330 329 327 326 325 324 323 323 322 322 321 321 321 321 321 321
202 197 134 152 206 210 95 59 48 110 166 170 165 178 177 182 195 206 217 216 210 226 234 120 235 250 204 163 214 214 204 196 179 185 192 191 189 187 188 192 191 190 191 192 193 194 193 193 192 189 186 185 184 182 178 175 172 169 171 176 190 223 293 315 321 326 329 331 330 330 329 328 327 326 326 325 325 324 324 323 322 322 321 321 321 320
188 190 95 132 201 213 78 99 127 91 67 138 174 194 190 194 201 207 216 206 202 219 214 168 256 258 167 160 206 210 198 194 190 193 195 197 196 194 193 195 195 194 195 195 195 196 197 197 195 191 187 185 184 181 176 175 176 178 183 190 216 267 314 322 325 328 328 329 328 326 326 326 326 326 324 324 324 323 323 323 322 321 320 319 319 319
170 163 129 171 200 203 28 110 137 106 107 223 225 205 195 201 205 194 201 214 207 210 202 201 235 233 143 163 190 194 192 202 208 204 199 200 200 200 199 199 198 198 197 198 200 199 200 200 197 194 188 183 180 178 176 181 185 189 198 212 249 294 318 323 326 327 326 326 325 324 324 323 323 323 322 321 321 320 320 319 318 318 317 316 316 315
168 169 156 180 195 170 35 153 140 157 217 228 228 203 194 195 189 177 203 217 208 206 212 224 235 146 143 178 190 194 204 213 217 214 208 205 203 202 203 201 201 202 200 200 202 200 200 200 196 191 184 179 179 181 184 190 192 201 219 247 287 308 319 321 325 326 325 325 324 323 323 322 322 321 320 319 318 317 316 316 315 315 314 313 312 312
163 168 160 157 149 122 105 163 177 208 227 231 322 238 190 180 178 193 217 219 207 206 219 235 241 192 183 198 200 205 215 220 223 221 218 213 209 205 204 205 204 204 204 203 202 199 198 197 192 186 183 184 187 188 190 194 199 215 245 279 302 312 319 322 324 326 325 324 323 323 322 321 320 319 317 316 315 314 314 313 313 313 312 311 311 311
160 158 144 120 127 123 143 187 201 233 259 226 327 311 161 152 171 200 230 235 213 204 214 231 234 210 190 203 206 207 217 223 228 229 224 219 215 212 213 216 215 212 210 206 202 198 195 192 191 190 190 191 192 191 192 198 211 238 273 294 307 315 320 322 323 323 321 321 321 321 320 319 317 316 314 314 313 312 312 312 312 312 311 310 310 309
164 158 154 169 183 165 172 197 237 333 306 235 220 192 167 155 161 182 226 242 214 200 204 221 231 211 182 201 209 204 206 212 231 239 229 222 220 220 222 225 222 215 208 200 196 193 192 193 194 195 195 193 192 193 195 203 224 258 284 296 308 315 316 317 318 317 317 318 318 317 316 315 314 313 312 312 312 311 312 311 312 312 311 310 310 309
168 169 171 186 195 152 163 200 225 256 247 235 190 162 177 180 175 176 209 242 215 197 202 212 225 202 171 188 201 191 186 195 234 239 228 221 218 220 220 217 212 207 199 193 191 191 192 195 195 194 193 192 192 196 200 214 244 270 290 299 305 310 311 312 314 314 315 315 314 313 313 312 311 311 311 311 311 311 311 311 311 311 311 311 310 309
99 50 170 188 182 157 181 206 198 217 243 226 137 164 183 179 164 144 197 252 219 188 203 211 209 189 186 195 192 174 165 205 229 227 223 219 214 211 208 201 197 194 192 191 191 191 192 194 193 192 191 191 194 201 210 233 265 280 294 300 302 307 310 311 312 312 311 310 309 310 310 310 310 311 311 311 311 311 311 311 310 310 310 310 309 308
120 111 183 199 196 182 194 213 215 234 250 192 166 188 173 163 148 135 210 252 164 172 198 204 194 198 205 199 186 171 185 216 225 224 218 214 207 199 197 195 192 190 189 187 187 189 191 191 192 193 192 192 196 206 222 246 275 286 294 300 303 307 309 308 308 307 306 307 308 309 310 310 311 311 311 311 311 310 311 310 310 309 308 307 306 306
164 185 196 202 203 193 196 216 247 266 228 203 211 174 159 152 154 180 222 196 152 174 194 194 194 206 209 194 183 191 210 217 225 226 209 206 202 192 189 191 190 187 185 184 184 187 189 189 191 192 193 197 201 209 229 257 282 291 296 301 303 305 305 304 304 305 306 308 309 310 312 312 311 311 311 310 309 308 308 308 307 306 306 305 304 303
182 188 188 200 204 199 203 218 253 267 217 161 136 154 161 159 191 212 172 126 156 182 191 191 199 209 207 195 195 204 213 216 221 213 193 199 202 194 187 186 183 181 181 181 182 184 186 187 189 191 195 202 206 219 252 277 289 294 298 300 301 302 301 302 304 305 307 309 310 311 312 312 311 311 310 309 309 308 307 307 306 305 305 304 304 303
175 171 181 197 191 181 202 202 218 271 184 139 129 135 190 210 155 141 143 143 163 178 186 195 204 210 209 206 205 207 209 212 210 200 190 193 196 192 187 184 182 181 180 179 179 181 183 186 189 192 197 204 219 250 274 285 291 295 296 297 298 298 299 301 304 307 309 311 312 313 313 313 313 313 312 311 311 310 310 310 309 308 307 307 306 305
181 176 183 199 187 179 197 199 201 279 154 157 154 166 205 205 178 111 138 167 181 184 192 200 206 212 217 217 212 208 207 206 202 196 190 189 190 189 186 182 181 181 179 177 179 179 180 187 192 194 202 218 247 270 281 287 292 293 293 295 297 298 301 305 308 311 312 313 314 314 314 315 315 315 315 315 315 314 314 314 314 313 312 311 310 309
209 191 161 191 197 185 207 217 204 131 167 178 185 197 197 205 216 221 220 245 244 224 218 217 218 220 221 221 216 210 208 205 200 196 192 189 187 186 183 180 180 180 178 178 179 178 180 187 194 202 221 245 267 279 285 289 291 292 293 296 299 302 306 310 312 313 315 315 316 317 317 317 317 317 317 317 317 316 316 316 316 315 315 314 313 311
253 167 103 104 206 232 267 257 250 213 180 191 202 210 200 209 222 231 239 250 253 245 236 231 231 227 219 216 211 206 204 202 196 193 191 189 185 183 183 181 179 179 179 180 180 180 182 186 195 217 243 263 274 280 284 287 289 291 294 297 302 306 309 312 314 316 317 318 318 318 317 317 316 316 316 316 316 316 316 316 315 314 314 314 313 312
264 181 156 135 184 198 229 238 232 229 212 200 204 210 208 211 223 232 236 241 245 243 232 223 223 220 214 210 206 201 200 197 193 190 189 188 186 183 183 183 181 180 181 182 182 183 184 190 207 231 253 266 273 276 280 283 286 292 297 302 305 308 311 314 316 317 317 317 316 316 316 316 316 315 316 315 315 315 314 314 314 313 313 313 313 312
200 174 177 204 203 204 232 243 231 235 236 220 215 218 218 218 226 231 230 230 231 227 217 210 207 206 204 206 207 206 201 197 197 195 189 188 187 185 183 184 184 183 183 184 186 189 193 206 224 240 252 261 268 273 277 283 290 296 300 304 308 312 315 316 316 315 315 315 316 316 316 316 316 316 316 315 316 316 315 315 315 314 313 313 313 312
152 168 183 201 202 232 271 265 222 255 267 245 233 231 228 225 226 226 224 223 221 217 210 205 203 206 212 216 218 216 209 201 199 198 193 188 186 185 184 184 185 186 187 188 191 198 208 222 234 245 251 257 264 272 280 289 295 299 303 308 313 315 316 315 314 314 315 315 316 317 317 317 317 317 317 317 317 317 317 317 316 315 314 313 313 312
165 177 174 172 193 224 247 220 177 182 261 244 236 238 236 228 221 221 222 221 219 218 216 213 212 214 219 221 220 218 213 204 198 196 194 189 186 185 185 186 188 190 192 195 202 210 221 232 243 250 255 261 269 277 286 292 296 301 308 313 314 314 314 314 314 315 316 317 317 318 318 319 319 320 320 320 319 318 317 316 316 316 315 314 313 312
206 202 180 183 209 237 272 253 215 223 249 253 247 250 249 237 226 223 224 224 225 226 226 227 228 227 222 219 217 216 215 209 200 196 193 188 186 187 187 189 192 196 200 206 213 221 231 242 249 255 261 268 276 282 288 293 300 308 312 314 314 313 313 314 315 316 317 318 319 319 320 320 320 320 320 320 320 320 319 317 316 315 315 315 314 313